| time (UTC) | temp F | wind direction | speed MPH | gust MPH | rain 1hr in | rain 24hr in | rain mn in | humidity % | barometer mb |
| 20260906123130 | 72 | 162 | 0.0 | 0.0 | 0.00 | 0.60 | 0.33 | 1 | 1014.2 |
| 20260906122129 | 71 | 162 | 0.0 | 0.0 | 0.00 | 0.60 | 0.33 | 1 | 1014.2 |
| 20260906121129 | 70 | 162 | 0.0 | 0.0 | 0.00 | 0.60 | 0.33 | 1 | 1014.2 |
| 20260906082057 | 71 | 55 | 0.0 | 2.0 | 0.00 | 0.60 | 0.33 | 1 | 1013.2 |
| 20260906081057 | 70 | 56 | 1.0 | 2.0 | 0.00 | 0.60 | 0.33 | 1 | 1013.5 |
| 20260906080056 | 70 | 307 | 1.0 | 3.0 | 0.00 | 0.60 | 0.33 | 1 | 1013.5 |
| 20260906075055 | 70 | 232 | 2.0 | 5.0 | 0.00 | 0.60 | 0.33 | 1 | 1013.5 |
| 20260906074054 | 70 | 263 | 1.0 | 5.0 | 0.00 | 0.60 | 0.33 | 1 | 1013.5 |
| 20260906073054 | 70 | 253 | 1.0 | 4.0 | 0.01 | 0.60 | 0.33 | 1 | 1014.2 |
| 20260906072053 | 71 | 252 | 1.0 | 7.0 | 0.02 | 0.60 | 0.33 | 1 | 1014.2 |
| 20260906071052 | 71 | 224 | 3.0 | 7.0 | 0.05 | 0.60 | 0.33 | 1 | 1014.6 |
| 20260906070052 | 71 | 213 | 2.0 | 4.0 | 0.10 | 0.60 | 0.33 | 1 | 1014.9 |
| 20260906065051 | 71 | 257 | 2.0 | 6.0 | 0.22 | 0.60 | 0.33 | 1 | 1015.2 |
| 20260906064050 | 71 | 145 | 2.0 | 6.0 | 0.33 | 0.60 | 0.33 | 1 | 1015.6 |
| 20260906063019 | 71 | 131 | 3.0 | 5.0 | 0.32 | 0.59 | 0.32 | 1 | 1015.9 |
| 20260906062018 | 71 | 309 | 1.0 | 4.0 | 0.31 | 0.58 | 0.31 | 1 | 1015.9 |
| 20260906061017 | 72 | 309 | 1.0 | 6.0 | 0.28 | 0.55 | 0.28 | 1 | 1015.9 |
| 20260906060017 | 73 | 26 | 2.0 | 13.0 | 0.22 | 0.49 | 0.22 | 1 | 1015.9 |
| 20260906055016 | 76 | 43 | 6.0 | 18.0 | 0.09 | 0.36 | 0.10 | 1 | 1015.9 |
| 20260906054015 | 78 | 47 | 8.0 | 19.0 | 0.00 | 0.27 | 0.00 | 1 | 1015.6 |
| 20260906053015 | 78 | 36 | 5.0 | 7.0 | 0.00 | 0.27 | 0.00 | 1 | 1015.2 |
| 20260906052014 | 77 | 79 | 2.0 | 6.0 | 0.00 | 0.27 | 0.00 | 1 | 1014.9 |
| 20260906051013 | 77 | 74 | 2.0 | 9.0 | 0.00 | 0.27 | 0.00 | 1 | 1013.9 |
| 20260906050013 | 76 | 11 | 2.0 | 10.0 | 0.00 | 0.27 | 0.27 | 1 | 1013.9 |
| 20260906044941 | 75 | 61 | 4.0 | 6.0 | 0.00 | 0.27 | 0.27 | 1 | 1013.5 |
| 20260906043940 | 74 | 237 | 2.0 | 7.0 | 0.00 | 0.27 | 0.27 | 1 | 1013.5 |
| 20260906042908 | 74 | 265 | 1.0 | 8.0 | 0.00 | 0.27 | 0.27 | 1 | 1013.9 |
| 20260906041907 | 74 | 171 | 1.0 | 2.0 | 0.00 | 0.27 | 0.27 | 1 | 1013.9 |
| 20260906040907 | 74 | 134 | 1.0 | 1.0 | 0.00 | 0.27 | 0.27 | 1 | 1014.2 |
| 20260906035906 | 74 | 134 | 0.0 | 1.0 | 0.00 | 0.27 | 0.27 | 1 | 1013.9 |
| 20260906034905 | 74 | 134 | 1.0 | 1.0 | 0.00 | 0.27 | 0.27 | 1 | 1013.9 |
| 20260906033904 | 74 | 134 | 0.0 | 1.0 | 0.00 | 0.27 | 0.27 | 1 | 1014.2 |
| 20260906032904 | 74 | 131 | 1.0 | 1.0 | 0.00 | 0.27 | 0.27 | 1 | 1013.9 |
| 20260906031903 | 74 | 131 | 0.0 | 1.0 | 0.00 | 0.27 | 0.27 | 1 | 1014.2 |
| 20260906030902 | 74 | 131 | 1.0 | 1.0 | 0.00 | 0.27 | 0.27 | 1 | 1013.9 |
| 20260906025902 | 74 | 131 | 0.0 | 1.0 | 0.00 | 0.27 | 0.27 | 1 | 1013.9 |
| 20260906024900 | 74 | 131 | 0.0 | 1.0 | 0.00 | 0.27 | 0.27 | 1 | 1013.5 |
| 20260906023900 | 74 | 131 | 1.0 | 2.0 | 0.00 | 0.27 | 0.27 | 1 | 1013.9 |
| 20260906022859 | 74 | 131 | 1.0 | 2.0 | 0.00 | 0.27 | 0.27 | 1 | 1013.5 |
| 20260906021858 | 74 | 98 | 1.0 | 3.0 | 0.00 | 0.27 | 0.27 | 1 | 1013.2 |
| 20260906020858 | 74 | 77 | 2.0 | 3.0 | 0.00 | 0.27 | 0.27 | 1 | 1013.2 |
| 20260906015857 | 74 | 78 | 0.0 | 1.0 | 0.00 | 0.27 | 0.27 | 1 | 1012.5 |
| 20260906014856 | 74 | 78 | 0.0 | 1.0 | 0.00 | 0.27 | 0.27 | 1 | 1012.5 |
| 20260906013824 | 74 | 76 | 0.0 | 1.0 | 0.00 | 0.27 | 0.27 | 1 | 1012.5 |
| 20260906012824 | 74 | 77 | 0.0 | 1.0 | 0.00 | 0.27 | 0.27 | 1 | 1012.5 |
| 20260906011823 | 74 | 77 | 0.0 | 1.0 | 0.00 | 0.27 | 0.27 | 1 | 1012.5 |
| 20260906010751 | 75 | 76 | 0.0 | 1.0 | 0.00 | 0.27 | 0.27 | 1 | 1012.9 |
| 20260906005750 | 75 | 77 | 0.0 | 1.0 | 0.00 | 0.27 | 0.27 | 1 | 1012.9 |
| 20260906004749 | 75 | 77 | 0.0 | 5.0 | 0.00 | 0.27 | 0.27 | 1 | 1012.9 |
| 20260906003717 | 76 | 77 | 1.0 | 5.0 | 0.00 | 0.27 | 0.27 | 1 | 1012.5 |
| 20260906002645 | 76 | 24 | 1.0 | 4.0 | 0.00 | 0.27 | 0.27 | 1 | 1012.5 |
| 20260906001645 | 77 | 179 | 1.0 | 3.0 | 0.09 | 0.27 | 0.27 | 1 | 1012.5 |
| 20260906000644 | 77 | 352 | 0.0 | 2.0 | 0.23 | 0.27 | 0.27 | 1 | 1012.5 |
| 20260905235643 | 77 | 328 | 1.0 | 2.0 | 0.26 | 0.27 | 0.27 | 1 | 1012.5 |
| 20260905234642 | 78 | 280 | 1.0 | 5.0 | 0.27 | 0.27 | 0.27 | 1 | 1012.9 |
| 20260905233641 | 78 | 145 | 1.0 | 13.0 | 0.27 | 0.27 | 0.27 | 1 | 1012.5 |
| 20260905232641 | 79 | 175 | 3.0 | 13.0 | 0.27 | 0.27 | 0.27 | 1 | 1012.5 |
| 20260905231640 | 81 | 162 | 2.0 | 9.0 | 0.17 | 0.17 | 0.17 | 1 | 1013.2 |
| 20260905230639 | 83 | 93 | 2.0 | 11.0 | 0.03 | 0.03 | 0.03 | 41 | 1013.2 |
| 20260905225639 | 87 | 52 | 6.0 | 12.0 | 0.01 | 0.01 | 0.01 | 57 | 1013.2 |
| 20260905224638 | 91 | 51 | 5.0 | 14.0 | 0.00 | 0.00 | 0.00 | 57 | 1012.9 |
| 20260905223637 | 95 | 97 | 7.0 | 16.0 | 0.00 | 0.00 | 0.00 | 52 | 1012.5 |
| 20260905222636 | 98 | 168 | 2.0 | 6.0 | 0.00 | 0.00 | 0.00 | 51 | 1011.9 |
| 20260905221635 | 99 | 159 | 2.0 | 4.0 | 0.00 | 0.00 | 0.00 | 49 | 1011.9 |
| 20260905220603 | 98 | 56 | 2.0 | 5.0 | 0.00 | 0.00 | 0.00 | 46 | 1011.9 |
| 20260905215602 | 97 | 54 | 3.0 | 6.0 | 0.00 | 0.00 | 0.00 | 46 | 1011.9 |
| 20260905214602 | 98 | 339 | 2.0 | 5.0 | 0.00 | 0.00 | 0.00 | 46 | 1011.9 |
| 20260905213530 | 97 | 115 | 2.0 | 5.0 | 0.00 | 0.00 | 0.00 | 49 | 1012.2 |
| 20260905212529 | 97 | 69 | 3.0 | 5.0 | 0.00 | 0.00 | 0.00 | 50 | 1012.2 |
| 20260905211529 | 98 | 64 | 3.0 | 8.0 | 0.00 | 0.00 | 0.00 | 48 | 1012.2 |
| 20260905210528 | 99 | 21 | 4.0 | 8.0 | 0.00 | 0.00 | 0.00 | 46 | 1011.9 |
| 20260905205527 | 100 | 17 | 4.0 | 9.0 | 0.00 | 0.00 | 0.00 | 46 | 1012.2 |
| 20260905204527 | 100 | 282 | 2.0 | 10.0 | 0.00 | 0.11 | 0.00 | 47 | 1012.2 |
| 20260905203526 | 99 | 334 | 2.0 | 9.0 | 0.00 | 0.47 | 0.00 | 47 | 1012.2 |
| 20260905202525 | 99 | 321 | 2.0 | 10.0 | 0.00 | 0.48 | 0.00 | 46 | 1012.5 |
| 20260905201524 | 98 | 296 | 1.0 | 7.0 | 0.00 | 0.48 | 0.00 | 47 | 1012.5 |
| 20260905200524 | 97 | 21 | 1.0 | 9.0 | 0.00 | 0.48 | 0.00 | 50 | 1012.9 |
| 20260905195523 | 97 | 65 | 4.0 | 10.0 | 0.00 | 0.48 | 0.00 | 50 | 1012.9 |
| 20260905194522 | 98 | 53 | 4.0 | 11.0 | 0.00 | 0.48 | 0.00 | 49 | 1013.2 |
| 20260905193521 | 99 | 75 | 3.0 | 9.0 | 0.00 | 0.48 | 0.00 | 45 | 1013.2 |
| 20260905192520 | 98 | 336 | 1.0 | 9.0 | 0.00 | 0.48 | 0.00 | 48 | 1013.5 |
| 20260905191520 | 97 | 325 | 3.0 | 8.0 | 0.00 | 0.48 | 0.00 | 49 | 1013.5 |
| 20260905190519 | 97 | 14 | 4.0 | 9.0 | 0.00 | 0.48 | 0.00 | 51 | 1013.5 |
| 20260905185518 | 96 | 62 | 3.0 | 6.0 | 0.00 | 0.48 | 0.00 | 52 | 1013.9 |
| 20260905184517 | 95 | 80 | 2.0 | 9.0 | 0.00 | 0.48 | 0.00 | 52 | 1013.9 |
| 20260905183517 | 97 | 62 | 6.0 | 10.0 | 0.00 | 0.48 | 0.00 | 53 | 1014.2 |
| 20260905182516 | 97 | 354 | 1.0 | 6.0 | 0.00 | 0.48 | 0.00 | 53 | 1014.2 |
| 20260905181444 | 96 | 40 | 3.0 | 7.0 | 0.00 | 0.48 | 0.00 | 52 | 1014.6 |
| 20260905180443 | 96 | 55 | 4.0 | 8.0 | 0.00 | 0.48 | 0.00 | 55 | 1014.6 |
| 20260905175443 | 96 | 103 | 2.0 | 6.0 | 0.00 | 0.48 | 0.00 | 55 | 1014.6 |
| 20260905174340 | 95 | 63 | 3.0 | 8.0 | 0.00 | 0.48 | 0.00 | 56 | 1014.9 |
| 20260905173339 | 95 | 27 | 5.0 | 9.0 | 0.00 | 0.48 | 0.00 | 56 | 1014.9 |
| 20260905172338 | 94 | 85 | 3.0 | 8.0 | 0.00 | 0.48 | 0.00 | 56 | 1014.9 |
| 20260905171338 | 94 | 23 | 5.0 | 9.0 | 0.00 | 0.48 | 0.00 | 57 | 1015.2 |
| 20260905170337 | 94 | 73 | 6.0 | 10.0 | 0.00 | 0.48 | 0.00 | 57 | 1015.2 |
| 20260905165336 | 94 | 34 | 6.0 | 11.0 | 0.00 | 0.48 | 0.00 | 56 | 1015.2 |
| 20260905164335 | 94 | 78 | 3.0 | 10.0 | 0.00 | 0.48 | 0.00 | 57 | 1015.2 |
| 20260905163304 | 94 | 327 | 2.0 | 8.0 | 0.00 | 0.48 | 0.00 | 57 | 1015.6 |
| 20260905162305 | 93 | 339 | 1.0 | 7.0 | 0.00 | 0.48 | 0.00 | 57 | 1015.6 |
| 20260905161302 | 92 | 16 | 3.0 | 7.0 | 0.00 | 0.48 | 0.00 | 56 | 1015.9 |
| 20260905160301 | 91 | 284 | 3.0 | 6.0 | 0.00 | 0.48 | 0.00 | 55 | 1015.9 |
| 20260905155300 | 91 | 34 | 2.0 | 4.0 | 0.00 | 0.48 | 0.00 | 51 | 1015.9 |
| 20260905154300 | 89 | 330 | 2.0 | 4.0 | 0.00 | 0.48 | 0.00 | 46 | 1015.9 |
| 20260905153259 | 88 | 306 | 2.0 | 4.0 | 0.00 | 0.48 | 0.00 | 34 | 1015.9 |
| 20260905152258 | 86 | 35 | 1.0 | 4.0 | 0.00 | 0.48 | 0.00 | 26 | 1015.9 |
| 20260905151258 | 87 | 54 | 2.0 | 3.0 | 0.00 | 0.48 | 0.00 | 28 | 1015.9 |
| 20260905150257 | 86 | 23 | 0.0 | 4.0 | 0.00 | 0.48 | 0.00 | 20 | 1015.9 |
| 20260905145256 | 85 | 33 | 2.0 | 5.0 | 0.00 | 0.48 | 0.00 | 28 | 1016.3 |
| 20260905144255 | 85 | 43 | 4.0 | 6.0 | 0.00 | 0.48 | 0.00 | 4 | 1016.3 |
| 20260905143224 | 84 | 26 | 1.0 | 4.0 | 0.00 | 0.48 | 0.00 | 1 | 1016.3 |
| 20260905142223 | 82 | 42 | 3.0 | 4.0 | 0.00 | 0.48 | 0.00 | 1 | 1016.3 |
| 20260905141151 | 80 | 323 | 0.0 | 1.0 | 0.00 | 0.48 | 0.00 | 1 | 1016.3 |
| 20260905140150 | 78 | 322 | 1.0 | 1.0 | 0.00 | 0.48 | 0.00 | 1 | 1016.3 |
| 20260905135150 | 77 | 316 | 1.0 | 1.0 | 0.00 | 0.48 | 0.00 | 1 | 1016.6 |
| 20260905134149 | 76 | 316 | 1.0 | 1.0 | 0.00 | 0.48 | 0.00 | 1 | 1016.6 |
| 20260905133149 | 75 | 316 | 0.0 | 1.0 | 0.00 | 0.48 | 0.00 | 1 | 1016.6 |
| 20260905132147 | 74 | 316 | 0.0 | 2.0 | 0.00 | 0.48 | 0.00 | 1 | 1016.6 |
| 20260905131115 | 74 | 316 | 1.0 | 2.0 | 0.00 | 0.48 | 0.00 | 1 | 1016.6 |
| 20260905130114 | 73 | 309 | 1.0 | 1.0 | 0.00 | 0.48 | 0.00 | 1 | 1016.6 |
| 20260905125114 | 73 | 310 | 0.0 | 1.0 | 0.00 | 0.48 | 0.00 | 1 | 1016.6 |
| 20260905124113 | 72 | 311 | 0.0 | 1.0 | 0.00 | 0.48 | 0.00 | 1 | 1016.3 |